Regional Weather Roundup
Issued by NWS

Home | Current Version | Previous Version | Text Only | Print | Product List | Glossary On
Versions: 1 2 3 4 5 6 7 8 9 10 11 12 13 14 15 16 17 18 19 20 21 22 23 24 25 26 27
000
ASUS45 KPSR 252110
RWRAZ

ARIZONA HOURLY REGIONAL WEATHER ROUNDUP
NATIONAL WEATHER SERVICE PHOENIX AZ
200 PM MST MON SEP 25 2017

NOTE: FAIR INDICATES FEW OR NO CLOUDS BELOW 12,000 FEET WITH NO
SIGNIFICANT WEATHER AND/OR OBSTRUCTIONS TO VISIBILITY.

AZZ001>003-036-252200-
NORTHWEST ARIZONA

CITY           SKY/WX    TMP DP  RH WIND       PRES   REMARKS
BULLHEAD CITY  SUNNY     82  28  14 NW22      29.81F
KINGMAN        PTSUNNY   74  26  16 VRB5      29.92F
$$

AZZ004>008-015-016-018-252200-
NORTH CENTRAL ARIZONA

CITY           SKY/WX    TMP DP  RH WIND       PRES   REMARKS
GRAND CANYON   MOSUNNY   63  20  19 VRB7      30.05F
WILLIAMS       MOSUNNY   66  10  11 VRB6G14   30.03F
PRESCOTT       SUNNY     72  13  10 E5        29.95F
FLAGSTAFF      SUNNY     62  11  13 NE5       30.05F
PAYSON           N/A     73   9   8 SW6       29.95F
PAGE           SUNNY     67  27  22 VRB6      29.99F
$$

AZZ009>014-017-252200-
NORTHEAST ARIZONA

CITY           SKY/WX    TMP DP  RH WIND       PRES   REMARKS
WINSLOW        SUNNY     70  13  11 SW3       29.98F
SAINT JOHNS    SUNNY     71  10   9 NW10      29.96F
WINDOW ROCK    SUNNY     67  12  12 NE3       30.02F
SHOW LOW       SUNNY     64  18  16 VRB6      30.02F
$$

AZZ540-542>544-546-548-252200-
GREATER PHOENIX AREA

CITY           SKY/WX    TMP DP  RH WIND       PRES   REMARKS
PHOENIX        MOSUNNY   86  16   7 W7        29.75F
BUCKEYE        SUNNY     84  19   9 S6        29.77F
GLENDALE       MOSUNNY   88  14   6 SW6       29.77F
LUKE AFB       SUNNY     86  15   7 CALM      29.74F
DEER VALLEY    SUNNY     84  16   8 VRB3      29.76F
SCOTTSDALE     SUNNY     85  17   8 VRB6      29.78F
MESA-GATEWAY   SUNNY     82  19   9 W8        29.78F
CHANDLER       SUNNY     84  16   8 NW7       29.77F
$$

AZZ539-553-252200-
SOUTHWEST MARICOPA COUNTY AND PINAL COUNTY

CITY           SKY/WX    TMP DP  RH WIND       PRES   REMARKS
CASA GRANDE    NOT AVBL
GILA BEND      SUNNY     85  14   7 W7        29.75F
$$

AZZ503-504-507>509-252200-
SOUTHEAST ARIZONA

CITY           SKY/WX    TMP DP  RH WIND       PRES   REMARKS
TUCSON         SUNNY     85  21   9 NW7       29.82F
DAVIS-MONTHAN  SUNNY     86  23  10 W7        29.80F
RYAN FIELD     SUNNY     84  23  10 MISG      29.81F
NOGALES        SUNNY     84  33  16 S14       29.85F
SIERRA VISTA   SUNNY     81  30  15 CALM      29.91F
DOUGLAS        SUNNY     80  33  18 S9        29.86F
SAFFORD        SUNNY     85  27  12 VRB5      29.80F
$$

AZZ532-252200-
SOUTHWEST ARIZONA

CITY           SKY/WX    TMP DP  RH WIND       PRES   REMARKS
YUMA           MOSUNNY   89  24   9 NW14G21   29.76F
$$

CAZ041-043-047-048-061-525>527-560>570-252200-
SOUTHERN CALIFORNIA

CITY           SKY/WX    TMP DP  RH WIND       PRES   REMARKS
DOWNTOWN L.A.  SUNNY     86  31  13 VRB5      29.80F
L.A. AIRPORT   MOSUNNY   80  48  32 W12       29.81F
SAN DIEGO      MOSUNNY   83  42  23 W9        29.81F
BURBANK        SUNNY     86  24  10 S12       29.80F
ONTARIO        MOSUNNY   88  20   8 NE10G20   29.81F
RIVERSIDE      SUNNY     88  25  10 NE8G20    29.80F
PALM SPRINGS   SUNNY     89  20   8 VRB5      29.82F
EL CENTRO NAS  MOSUNNY   89  16   7 VRB5      29.79F
IMPERIAL       SUNNY     89  30  12 N9        29.77F
BLYTHE         MOSUNNY   88  21   8 N13       29.78F
NEEDLES        SUNNY     86  25  11 NE13G21   29.82F
$$

NVZ020-UTZ003-252200-
SOUTHERN NEVADA-UTAH

CITY           SKY/WX    TMP DP  RH WIND       PRES   REMARKS
LAS VEGAS      MOSUNNY   75  26  16 VRB3      29.91F
SALT LAKE CITY MOSUNNY   60  36  40 W7        30.10F
$$

NMZ009-TXZ055-252200-
NEW MEXICO-WEST TEXAS

CITY           SKY/WX    TMP DP  RH WIND       PRES   REMARKS
ALBUQUERQUE    SUNNY     72  20  14 N6        29.94F
EL PASO        MOSUNNY   86  35  16 SW16      29.82F
$$


........................KEY........................
SKY/WX - SKY CONDITION/WEATHER
TMP    - TEMPERATURE IN FAHRENHEIT
DP     - DEW POINT IN FAHRENHEIT
RH     - RELATIVE HUMIDITY IN PERCENT
WIND   - DIRECTION AND SPEED IN MILES PER HOUR (MPH)
VRB    - VARIABLE WIND DIRECTION
PRES   - MEAN SEA LEVEL PRESSURE IN INCHES OF MERCURY
         F - FALLING PRESSURE   R - RISING PRESSURE
         S - STEADY PRESSURE
VSB    - VISIBILITY IN MILES
HX     - HEAT INDEX IN FAHRENHEIT
WCI    - WIND CHILL INDEX IN FAHRENHEIT
TC     - TEMPERATURE IN CELSIUS WHICH IS ALSO KNOWN AS
         TEMPERATURE IN CENTIGRADE
AFB    - AIR FORCE BASE
         LUKE AFB IS LUKE AIR FORCE BASE
         DAVIS-MONTHAN IS DAVIS-MONTHAN AIR FORCE BASE
NAS    - NAVAL AIR STATION
         EL CENTRO NAS IS EL CENTRO NAVAL AIR STATION
N/A    - NOT AVAILABLE





USA.gov is the U.S. government's official web portal to all federal, state and local government web resources and services.